This is the latest recevied weather packets stored in our database for station/object N3SBK. If no packets are shown the sender has not sent any weather packets the latest 10 day(s).
| Time | Temp. | Humidity | Pressure | Rain* | Wind** | Luminosity | Snow |
|---|---|---|---|---|---|---|---|
| 1787840153 | 21.67° C | 81% | 1007.9 hPa | 0 mm | - | 47 W/m² | - |
| 1787839853 | 21.67° C | 81% | 1007.7 hPa | 0 mm | - | 45 W/m² | - |
| 1787839548 | 21.67° C | 82% | 1007.3 hPa | 0 mm | - | 42 W/m² | - |
| 1787839248 | 21.11° C | 83% | 1007.5 hPa | 0 mm | - | 41 W/m² | - |
| 1787838948 | 21.11° C | 83% | 1007.4 hPa | 0 mm | - | 42 W/m² | - |
| 1787838647 | 21.11° C | 84% | 1007.4 hPa | 0 mm | - | 39 W/m² | - |
| 1787838346 | 21.11° C | 84% | 1007.3 hPa | 0 mm | - | 39 W/m² | - |
| 1787838046 | 20.56° C | 85% | 1007.1 hPa | 0 mm | - | 38 W/m² | - |
| 1787837745 | 20.56° C | 86% | 1007 hPa | 0 mm | - | 37 W/m² | - |
| 1787837440 | 20° C | 88% | 1007.2 hPa | 0 mm | - | 36 W/m² | - |
| 1787837135 | 20° C | 90% | 1007.2 hPa | 0 mm | - | 38 W/m² | - |
| 1787836834 | 19.44° C | 92% | 1007.3 hPa | 0 mm | - | 34 W/m² | - |
| 1787836530 | 19.44° C | 92% | 1007.4 hPa | 0 mm | - | 32 W/m² | - |
| 1787836224 | 18.89° C | 93% | 1007.4 hPa | 0 mm | - | 31 W/m² | - |
| 1787835921 | 18.89° C | 94% | 1007.5 hPa | 0 mm | - | 30 W/m² | - |
| 1787835621 | 18.33° C | 94% | 1007.3 hPa | 0 mm | - | 29 W/m² | - |
| 1787835320 | 18.33° C | 95% | 1007.5 hPa | 0 mm | - | 28 W/m² | - |
| 1787835015 | 17.78° C | 95% | 1007.7 hPa | 0 mm | - | 27 W/m² | - |
| 1787834714 | 17.78° C | 95% | 1007.9 hPa | 0 mm | - | 28 W/m² | - |
| 1787834409 | 17.78° C | 96% | 1007.8 hPa | 0 mm | - | 25 W/m² | - |
| 1787834106 | 17.78° C | 96% | 1007.7 hPa | 0 mm | - | 24 W/m² | - |
| 1787833800 | 17.78° C | 96% | 1007.7 hPa | 0 mm | - | 24 W/m² | - |
| 1787833495 | 17.78° C | 96% | 1007.8 hPa | 0 mm | - | 23 W/m² | - |
| 1787833191 | 17.22° C | 97% | 1007.8 hPa | 0 mm | - | 24 W/m² | - |
| 1787832887 | 17.22° C | 97% | 1007.5 hPa | 0 mm | - | 24 W/m² | - |
* Rain latest hour (hover to see other rain measurements)
** Current wind speed in m/s (hover to see current wind gust speed)